Hourly Data Report for December 09, 2003

TORONTO CITY
ONTARIO

43°40'00.000" N
79°24'00.000" W
112.50 m
6158355
71508
XTO

Download Data

Hourly Data (December 2003)
Hourly Data Report for December 9, 2003
TIME
LST
Temp Definition
°C
Dew Point Definition
°C
Rel Hum Definition
%
Precip. Amount Definition
mm

Wind Dir Definition
10's deg

Wind Spd Definition
km/h
Visibility Definition
km
Stn Press Definition
kPa
Hmdx Definition


Wind Chill Definition


Weather Definition


00:00 1.6 -2.3 75   LegendMM LegendMM LegendMM 100.75     LegendNANA
01:00 1.7 -2.2 75   LegendMM LegendMM LegendMM 100.75     LegendNANA
02:00 1.2 -3.0 74   LegendMM LegendMM LegendMM 100.78     LegendNANA
03:00 0.6 -3.6 73   LegendMM LegendMM LegendMM 100.77     LegendNANA
04:00 1.0 -2.5 77   LegendMM LegendMM LegendMM 100.74     LegendNANA
05:00 0.5 -2.6 80   LegendMM LegendMM LegendMM 100.73     LegendNANA
06:00 0.5 -2.0 83   LegendMM LegendMM LegendMM 100.73     LegendNANA
07:00 1.2 -0.8 86   LegendMM LegendMM LegendMM 100.76     LegendNANA
08:00 1.8 -0.2 87   LegendMM LegendMM LegendMM 100.77     LegendNANA
09:00 1.9 0.1 88   LegendMM LegendMM LegendMM 100.75     LegendNANA
10:00 2.5 -0.2 82   LegendMM LegendMM LegendMM 100.75     LegendNANA
11:00 2.7 -1.0 77   LegendMM LegendMM LegendMM 100.72     LegendNANA
12:00 2.8 0.0 82   LegendMM LegendMM LegendMM 100.64     LegendNANA
13:00 3.5 -0.2 77   LegendMM LegendMM LegendMM 100.60     LegendNANA
14:00 3.8 -2.1 65   LegendMM LegendMM LegendMM 100.54     LegendNANA
15:00 3.8 -1.1 70   LegendMM LegendMM LegendMM 100.52     LegendNANA
16:00 3.7 -0.4 75   LegendMM LegendMM LegendMM 100.55     LegendNANA
17:00 3.6 -0.5 75   LegendMM LegendMM LegendMM 100.58     LegendNANA
18:00 3.7 -0.6 73   LegendMM LegendMM LegendMM 100.59     LegendNANA
19:00 3.7 -0.2 76   LegendMM LegendMM LegendMM 100.55     LegendNANA
20:00 3.7 -0.4 75   LegendMM LegendMM LegendMM 100.52     LegendNANA
21:00 3.8 0.2 77   LegendMM LegendMM LegendMM 100.52     LegendNANA
22:00 3.3 1.0 85   LegendMM LegendMM LegendMM 100.47     LegendNANA
23:00 3.0 0.9 86   LegendMM LegendMM LegendMM 100.43     LegendNANA

Notes on Data Quality.

Legend

  • E = Estimated
  • M = Missing
  • NA = Not Available*
  • [empty] = Indicates an unobserved value
Date modified: